Wind_Speed
13 12 13 13 14 14 14 16 16 17 18 18 18 18 17 17 17 17 17 17 17 17 17 18 18 18 17 17 16 16 15 15 15 15 16 17 18 20 21 23 23 24
13 13 14 14 14 14 14 15 16 17 18 19 19 18 17 17 17 17 17 17 17 17 17 17 17 17 16 16 15 15 15 15 15 16 17 18 19 21 22 23 24 24
15 14 13 13 13 13 13 14 15 17 18 18 17 17 17 17 16 17 17 17 17 16 16 15 15 15 15 15 15 14 15 15 15 16 17 19 21 22 23 24 24 24
16 14 13 12 12 12 13 14 15 17 17 16 16 16 16 16 16 16 16 16 16 15 14 14 14 14 14 14 14 14 14 15 16 17 18 20 22 23 24 24 24 23
15 14 13 12 12 12 12 14 15 16 15 15 15 15 15 15 15 16 15 15 14 13 13 13 13 14 14 14 13 13 14 15 16 18 20 21 22 23 23 23 22 22
15 13 13 12 11 11 11 13 14 14 14 13 13 14 14 15 15 14 14 13 12 12 12 13 13 13 13 13 13 13 14 15 17 19 20 21 22 22 22 21 21 21
15 14 13 12 11 10 10 11 12 12 12 12 13 14 14 14 13 13 12 12 12 12 12 12 12 12 12 12 12 13 15 16 18 19 20 21 21 20 20 20 20 21
16 15 13 12 10 10 10 10 10 11 11 13 13 14 13 12 12 12 11 11 11 12 12 12 12 11 12 12 12 14 15 17 19 19 20 20 19 19 19 19 20 21
17 15 14 12 11 10 11 11 11 11 12 13 14 13 12 12 12 11 11 11 11 12 12 11 11 11 11 12 13 14 16 17 18 19 19 19 18 18 19 20 20 21
18 17 15 13 12 12 12 12 12 12 13 14 14 13 12 12 12 11 11 11 12 12 12 11 11 11 11 12 13 15 16 17 18 18 18 17 17 18 19 19 20 20
19 18 15 14 13 13 13 13 13 13 14 14 14 13 12 12 12 11 12 12 12 12 11 11 10 11 11 12 13 15 16 17 17 17 17 16 17 17 18 19 19 19
19 17 15 13 13 13 13 14 14 14 14 15 14 14 13 12 12 12 12 12 12 11 11 10 10 10 11 12 14 15 16 17 17 16 15 16 16 17 17 18 18 19
18 16 14 13 13 13 14 14 14 14 15 15 15 14 14 13 13 13 13 12 12 11 10 10 10 11 12 13 13 14 15 16 15 15 15 15 16 16 17 17 17 18
17 15 14 13 13 13 14 14 14 14 16 16 15 15 14 14 14 13 13 12 11 10 10 10 10 11 12 13 13 14 15 14 14 14 14 14 15 15 16 16 17 17
18 16 15 14 14 14 14 14 15 16 17 17 16 15 15 15 14 13 13 12 11 10 10 10 10 11 12 12 13 13 13 13 13 13 13 13 14 14 15 15 16 17
19 17 16 15 14 13 14 15 16 17 18 18 17 16 16 15 14 13 13 12 11 10 10 10 11 11 11 12 12 13 12 12 12 12 12 13 13 13 14 14 15 16
20 18 17 16 15 14 15 16 16 18 19 18 17 17 16 15 14 13 13 12 11 10 10 11 11 11 11 12 12 12 12 12 11 11 11 12 12 12 13 13 14 15
21 20 18 17 16 15 15 16 18 19 20 19 18 18 16 15 14 14 13 12 11 11 10 11 11 10 11 11 11 11 11 11 10 10 11 11 11 12 12 12 13 14
23 21 19 18 16 15 16 17 18 20 21 20 19 18 17 15 15 14 14 13 12 11 11 11 10 10 11 11 10 10 10 9 9 10 10 10 10 10 11 12 13 13
24 22 20 19 17 16 16 17 19 21 22 20 19 18 17 16 16 15 14 13 12 11 11 11 10 10 10 10 10 9 9 9 9 8 9 9 9 9 10 11 12 13
26 23 21 20 18 17 17 17 19 21 22 21 20 19 18 17 17 16 15 14 13 12 11 10 10 10 10 9 9 8 8 8 8 7 8 8 8 8 9 10 11 12
27 24 22 21 19 18 17 18 19 22 23 22 20 19 18 17 17 16 15 14 13 12 12 11 11 11 10 9 8 7 7 7 7 6 6 6 6 7 9 10 11 12
29 25 24 23 20 18 17 18 20 22 23 23 21 19 18 18 17 16 15 14 14 13 12 12 12 11 10 9 7 6 6 6 5 5 5 5 5 7 8 10 11 12
30 27 26 25 21 18 17 19 20 22 24 23 22 20 19 19 18 17 16 15 14 14 13 12 12 11 9 8 7 6 6 5 5 5 5 5 5 6 8 9 11 12
30 29 29 27 22 18 18 19 21 23 25 24 22 21 20 19 19 18 17 16 15 14 13 13 12 11 10 8 7 6 6 5 5 5 5 5 5 6 8 9 11 12
29 29 28 24 21 20 18 19 21 24 26 25 23 21 20 20 20 19 18 17 16 14 13 13 13 11 10 9 8 7 6 5 5 6 6 5 5 6 7 9 11 12
Wind_Direction
212 214 219 224 229 235 243 251 254 253 258 271 281 284 284 284 284 285 288 292 295 297 298 298 297 297 298 299 300 301 305 310 313 315 317 318 319 319 318 319 320 323
213 218 224 228 233 240 248 253 255 256 261 270 277 280 280 281 282 286 290 293 295 295 295 295 296 298 300 300 302 305 309 313 315 317 319 320 320 320 321 323 324 325
216 221 225 230 235 243 250 254 256 259 264 271 276 278 279 281 284 288 291 292 292 292 293 296 298 299 300 300 303 308 311 314 316 318 321 321 321 323 325 326 326 327
216 220 224 230 238 245 251 257 262 266 270 275 277 278 279 283 286 288 289 289 289 292 296 299 299 298 299 301 305 310 313 315 317 319 321 323 325 326 326 327 327 329
216 221 226 234 241 248 256 264 269 272 276 278 278 280 282 284 285 286 287 288 291 296 299 298 297 297 299 303 308 312 315 316 318 321 323 325 326 327 327 328 329 331
219 224 231 236 241 250 262 269 272 274 275 278 282 283 283 283 284 285 288 291 295 298 297 295 296 297 300 305 311 315 316 317 320 323 325 326 326 327 328 330 332 335
224 228 230 232 237 250 264 269 272 274 276 281 283 283 282 282 285 287 290 293 294 293 292 293 295 297 301 308 313 314 316 318 321 323 324 325 327 329 331 333 336 338
225 226 226 227 235 251 265 273 277 279 280 282 281 280 282 284 286 287 288 289 287 287 288 291 294 299 305 309 312 314 315 318 320 322 325 327 329 331 333 336 338 339
222 222 221 226 239 256 270 277 280 282 281 280 278 280 283 283 283 283 282 282 282 283 287 291 296 302 305 307 310 313 315 317 320 324 327 329 331 333 336 338 339 339
220 219 222 232 248 263 272 276 278 279 277 276 277 280 280 279 278 277 277 277 278 282 286 291 296 299 300 304 308 312 315 318 323 327 329 330 332 335 338 339 339 340
219 220 228 243 257 266 271 273 274 274 273 273 276 277 275 274 273 272 272 272 275 280 284 289 292 293 296 301 308 313 316 320 325 328 329 331 334 337 338 339 339 340
219 223 235 249 259 265 270 272 272 271 270 271 272 272 270 269 267 265 265 267 271 276 280 284 286 288 295 302 310 316 319 322 326 328 329 332 335 338 338 339 340 341
219 229 240 247 254 262 268 271 271 269 267 267 266 265 264 262 260 259 260 263 268 272 276 278 281 287 297 305 312 317 320 323 325 326 329 333 336 338 339 340 342 342
223 232 237 242 250 259 266 270 269 266 263 262 261 259 257 255 255 255 258 261 265 268 272 274 280 290 299 306 313 318 320 321 322 325 330 334 336 338 339 341 344 344
226 231 234 241 249 256 262 265 264 261 259 257 255 253 252 251 251 253 256 260 262 264 267 273 282 292 299 308 314 318 318 318 320 326 331 334 336 338 341 344 345 346
227 229 233 241 248 254 260 260 258 256 254 253 251 249 248 248 249 252 255 256 258 261 265 273 283 292 300 309 313 315 315 315 320 327 331 334 336 339 343 346 347 349
227 228 235 243 249 255 258 257 255 253 251 250 248 246 245 246 248 251 252 253 255 257 263 273 283 291 300 308 310 310 311 314 321 328 330 333 338 342 345 348 351 353
226 229 237 244 250 256 257 254 251 249 247 246 245 244 244 244 246 248 249 250 251 254 263 273 281 290 299 304 306 305 309 314 322 326 329 335 341 344 348 352 356 358
228 233 238 243 248 256 258 253 248 245 244 243 242 243 243 244 246 246 246 247 248 253 264 272 279 289 295 298 300 302 307 315 321 324 330 339 343 345 352 358 0 2
232 235 238 241 247 256 260 254 246 243 242 240 239 240 242 243 243 244 243 243 245 252 262 268 275 285 289 291 294 299 305 312 317 323 333 340 342 348 357 2 4 4
235 236 237 240 246 255 261 257 248 243 241 239 237 238 241 243 243 243 241 240 245 253 258 263 270 278 281 283 288 295 301 308 313 323 333 336 340 352 1 4 5 6
235 235 235 239 245 252 259 259 252 244 241 239 237 237 240 242 241 241 239 238 245 251 252 257 266 270 272 276 281 287 294 300 308 319 327 329 339 357 3 3 4 6
235 234 233 236 238 244 255 259 253 245 240 238 237 236 237 239 238 236 235 238 244 246 247 254 262 263 265 270 274 278 284 289 300 311 315 321 340 358 2 360 1 4
232 232 233 235 234 239 250 256 252 244 239 237 234 233 234 236 235 232 232 237 241 242 245 252 258 258 260 263 264 268 272 277 288 297 299 311 338 354 359 358 358 1
227 229 233 232 230 235 244 251 249 242 238 236 234 232 233 234 233 231 231 235 237 238 244 251 254 254 255 255 255 257 260 266 275 280 287 305 332 347 354 355 354 356
233 239 244 235 225 230 239 247 248 241 237 236 234 231 231 232 232 232 232 234 235 236 244 251 251 250 250 247 246 247 249 256 265 270 282 301 322 338 348 351 350 353
Height
3151 3153 3154 3155 3156 3157 3158 3158 3159 3160 3161 3161 3162 3162 3161 3161 3161 3161 3160 3160 3160 3160 3159 3159 3158 3157 3157 3156 3155 3154 3153 3152 3151 3150 3150 3149 3148 3147 3146 3145 3143 3142
3151 3152 3153 3154 3155 3156 3156 3157 3158 3158 3159 3160 3160 3160 3160 3159 3159 3158 3158 3158 3158 3158 3158 3157 3157 3156 3155 3154 3153 3152 3152 3151 3150 3149 3148 3147 3146 3145 3144 3143 3141 3140
3149 3150 3151 3152 3153 3154 3155 3156 3156 3157 3158 3158 3158 3158 3158 3157 3157 3156 3156 3156 3156 3157 3156 3156 3155 3154 3153 3153 3152 3151 3150 3149 3148 3147 3147 3146 3145 3143 3142 3140 3139 3138
3148 3149 3150 3151 3152 3153 3154 3155 3155 3156 3156 3156 3156 3156 3155 3155 3154 3154 3154 3154 3155 3155 3154 3154 3153 3153 3152 3151 3151 3150 3149 3148 3147 3146 3145 3144 3143 3142 3140 3139 3137 3136
3146 3148 3149 3150 3151 3152 3153 3153 3154 3154 3154 3154 3154 3153 3153 3153 3153 3153 3153 3153 3153 3153 3153 3152 3152 3151 3151 3150 3149 3149 3148 3147 3146 3145 3144 3143 3142 3140 3139 3138 3136 3135
3145 3147 3148 3149 3150 3151 3152 3152 3152 3152 3152 3152 3151 3151 3151 3151 3151 3151 3151 3151 3151 3151 3151 3151 3151 3150 3149 3149 3148 3147 3146 3145 3144 3144 3143 3142 3140 3139 3138 3136 3135 3134
3144 3145 3146 3147 3149 3150 3150 3150 3150 3150 3150 3150 3149 3149 3149 3149 3149 3149 3149 3150 3150 3150 3150 3150 3149 3149 3148 3148 3147 3146 3145 3144 3143 3142 3142 3140 3139 3138 3136 3135 3134 3133
3143 3144 3145 3146 3147 3148 3149 3149 3148 3148 3148 3147 3147 3147 3147 3148 3148 3148 3148 3148 3148 3148 3149 3148 3148 3148 3147 3146 3146 3145 3144 3143 3142 3141 3140 3139 3138 3136 3135 3134 3133 3132
3141 3143 3144 3145 3146 3147 3147 3147 3146 3146 3146 3145 3145 3145 3146 3146 3146 3146 3147 3147 3147 3147 3147 3147 3147 3146 3146 3145 3145 3144 3143 3142 3141 3140 3139 3138 3136 3135 3134 3133 3132 3131
3140 3141 3143 3144 3144 3145 3145 3144 3144 3144 3144 3143 3144 3144 3144 3145 3145 3145 3145 3145 3146 3146 3146 3146 3145 3145 3145 3144 3144 3143 3142 3141 3140 3139 3138 3136 3135 3134 3133 3132 3131 3130
3138 3140 3141 3142 3142 3142 3142 3142 3142 3142 3142 3142 3142 3142 3143 3143 3143 3144 3144 3144 3144 3144 3144 3144 3144 3144 3144 3143 3143 3142 3141 3140 3139 3138 3136 3135 3135 3133 3132 3131 3130 3129
3137 3138 3139 3140 3140 3140 3140 3140 3140 3140 3140 3140 3141 3141 3141 3142 3142 3142 3143 3143 3143 3143 3143 3143 3143 3143 3143 3142 3142 3141 3139 3138 3137 3136 3135 3135 3134 3133 3132 3131 3130 3128
3135 3136 3137 3137 3138 3138 3138 3138 3138 3138 3138 3138 3139 3140 3140 3140 3140 3141 3141 3141 3142 3142 3142 3142 3142 3142 3141 3141 3140 3139 3138 3137 3136 3135 3135 3134 3133 3132 3131 3130 3129 3127
3133 3134 3135 3135 3136 3136 3136 3136 3136 3136 3136 3137 3138 3138 3138 3138 3139 3140 3140 3140 3140 3140 3140 3141 3141 3141 3140 3140 3139 3138 3137 3136 3135 3134 3134 3133 3132 3131 3130 3129 3128 3127
3131 3132 3133 3134 3134 3134 3134 3134 3134 3134 3135 3135 3136 3136 3136 3137 3137 3138 3138 3138 3139 3139 3139 3139 3139 3139 3139 3139 3138 3137 3136 3135 3134 3134 3133 3132 3131 3130 3129 3128 3127 3126
3129 3130 3131 3132 3132 3132 3132 3132 3132 3132 3133 3133 3134 3135 3135 3135 3136 3136 3137 3137 3137 3137 3138 3138 3138 3138 3138 3137 3136 3136 3135 3134 3133 3133 3132 3132 3131 3130 3129 3128 3126 3125
3127 3128 3129 3130 3130 3130 3130 3130 3130 3130 3131 3131 3132 3133 3133 3134 3134 3134 3135 3135 3135 3136 3136 3136 3137 3136 3136 3136 3135 3134 3134 3133 3132 3132 3131 3131 3130 3129 3128 3127 3126 3124
3124 3125 3126 3127 3127 3127 3127 3127 3128 3128 3129 3129 3130 3131 3131 3132 3132 3133 3133 3134 3134 3134 3135 3135 3135 3135 3134 3134 3134 3133 3132 3132 3131 3131 3131 3130 3129 3128 3127 3126 3125 3123
3121 3123 3123 3124 3124 3125 3125 3125 3125 3126 3127 3128 3128 3129 3129 3130 3130 3131 3131 3132 3132 3132 3133 3133 3133 3133 3133 3133 3132 3132 3131 3131 3130 3130 3129 3129 3128 3127 3126 3125 3124 3122
3118 3119 3120 3121 3122 3122 3123 3123 3123 3124 3125 3126 3126 3127 3127 3128 3128 3129 3129 3130 3130 3131 3131 3131 3131 3131 3131 3131 3131 3130 3130 3130 3129 3129 3128 3128 3127 3126 3125 3124 3123 3121
3115 3116 3117 3118 3119 3120 3120 3120 3121 3122 3122 3123 3124 3124 3125 3126 3127 3127 3127 3128 3128 3129 3129 3130 3130 3130 3130 3130 3129 3129 3129 3128 3128 3128 3127 3127 3126 3126 3124 3123 3122 3120
3111 3113 3114 3115 3116 3117 3118 3118 3118 3119 3120 3121 3122 3122 3123 3124 3125 3125 3125 3126 3126 3127 3127 3128 3128 3128 3128 3128 3128 3128 3128 3127 3127 3127 3127 3126 3125 3124 3123 3122 3121 3119
3108 3110 3111 3112 3113 3114 3115 3115 3116 3116 3117 3118 3119 3120 3121 3121 3122 3123 3123 3124 3124 3125 3126 3126 3127 3127 3127 3127 3127 3127 3126 3126 3126 3126 3126 3125 3124 3123 3122 3121 3120 3118
3104 3106 3107 3108 3110 3111 3112 3112 3113 3113 3115 3116 3116 3117 3118 3119 3120 3120 3121 3122 3122 3123 3124 3125 3125 3125 3125 3125 3125 3125 3125 3125 3125 3125 3124 3124 3123 3122 3121 3120 3119 3117
3100 3101 3103 3104 3106 3108 3108 3109 3110 3111 3112 3113 3114 3114 3115 3116 3117 3118 3119 3120 3120 3121 3122 3123 3124 3124 3124 3124 3124 3124 3124 3124 3124 3124 3123 3123 3122 3121 3120 3119 3117 3116
3098 3098 3098 3100 3102 3104 3105 3106 3107 3108 3109 3110 3111 3112 3113 3114 3115 3116 3117 3118 3118 3119 3121 3121 3122 3122 3122 3122 3122 3123 3123 3123 3123 3123 3122 3121 3120 3119 3118 3117 3116 3115